Starlink 30073

operational
NORAD ID: 56840 Int'l Des: 2023-079 Owner: SPXS Country: US Constellation: starlink
LEOCIRCULAR

关于 Starlink 30073

正在加载描述...

实时位置

正在加载3D地球...

即将过境

高度历史

Altitude vs Time

uPlot chart will show altitude changes over time

两行轨道根数

1 56840U 23079T 25260.91668981 .00200748 00000-0 41038-2 0 9996
2 56840 42.9938 241.6057 0015817 142.3082 194.0099 15.44545434 5834
Epoch: Sep 17, 2025 • Age: 8 hours

当前状态

高度 446.1 km
速度 7.64 km/s
星下点 -16.10°S, 137.99°E
发射日期 Jun 4, 2023
运行时间 2.2 years
类型 internet

技术详情

分类 Payload
质量 730.00 kg
干质量 700.00 kg
总质量 730.00 kg
长度 0.30 m
直径 4.10 m
跨度 29.00 m
形状 Box + pan
制造商 SPXS
平台类型 Starlink V2M
阶段状态 In Orbit
所有者/国家 SPXS/US

大型星座

Loading constellations...